Regional Weather Roundup
Issued by NWS Newport/Morehead, NC

Current Version | Previous Version | Graphics & Text | Print | Product List | Glossary Off
Versions: 1 2 3 4 5 6 7 8 9 10 11 12 13 14 15 16 17 18 19 20 21 22 23 24 25 26 27 28 29 30 31 32 33 34 35 36 37 38 39 40 41 42 43 44 45 46 47 48 49 50

000
ASUS42 KMHX 282325
RWRMHX
WEATHER ROUNDUP FOR EASTERN NORTH CAROLINA
NATIONAL WEATHER SERVICE NEWPORT/MOREHEAD CITY NC
700 PM EDT TUE JUL 28 2015

NOTE: "FAIR" INDICATES FEW OR NO CLOUDS BELOW 12,000 FEET
WITH NO SIGNIFICANT WEATHER AND/OR OBSTRUCTIONS TO VISIBILITY

NCZ015>017-031-032-045>047-102-103-290000-
NORTH COAST

CITY           SKY/WX    TMP DP  RH WIND       PRES   REMARKS
EDENTON          N/A     84  72  67 SW8       29.98R
ELIZABETH CITY PTSUNNY   84  73  69 E10       29.98R
KITTY HAWK     MOCLDY    85  69  59 SE7       29.99R
MANTEO         PTSUNNY   81  70  68 S5        30.00R

$$

NCZ045>047-081-094-103-104-290000-
CENTRAL COAST

CITY           SKY/WX    TMP DP  RH WIND       PRES   REMARKS
FRISCO         MOSUNNY   84  69  60 E8        29.98F
SWANQUARTER      N/A     82 N/A N/A E2        29.97R

$$

NCZ095-097-098-100-101-290000-
SOUTHERN COAST

CITY           SKY/WX    TMP DP  RH WIND       PRES   REMARKS
BEAUFORT       MOSUNNY   82  71  69 E5        29.97S
CEDAR ISLAND     N/A     82 N/A N/A E5        30.00S
JACKSONVILLE   MOSUNNY   82  67  60 SE7       29.96F
PINEY ISLAND   PTCLDY   N/A N/A N/A SE7       29.97S
WILMINGTON     SUNNY     83  71  67 E8        29.96F


$$

NCZ011>013-027>030-043-044-078>080-089-090>093-098-290000-
COASTAL PLAIN

CITY           SKY/WX    TMP DP  RH WIND       PRES   REMARKS
AHOSKIE        PTSUNNY   83  68  61 S5        29.97S
CLINTON        PTSUNNY   86  72  61 CALM      29.96S
ELIZABETHTOWN  SUNNY     86  69  55 CALM      29.96S
GOLDSBORO      CLOUDY    86  73  65 E3        29.94S
GREENVILLE     CLOUDY    84  72  65 E7        29.99R
HAVELOCK       MOSUNNY   83  69  62 E7        29.97F
KENANSVILLE    PTSUNNY   83  70  64 CALM      29.97S
KINSTON        CLOUDY    86  66  51 SE5       29.96F
NEW BERN       MOSUNNY   83  68  60 SE5       29.97F
RICHLANDS      PTSUNNY   82  66  57 CALM      29.96F
ROCKY MOUNT    CLOUDY    83  72  69 CALM      29.96F
WASHINGTON     PTSUNNY   83  68  59 SE7       29.98R
WHITEVILLE     SUNNY     87  69  55 E5        29.95S

$$

AMZ130-135-150-152-154-156-158-170-250-252-270-ANZ085-086-088-633-658-670-290000-
MARINE OBSERVATIONS

STATION/POSITION TIME  TEMP    WIND        PRES    WAVE   SWELL
                       AIR SEA DIR/SP/G            HT/PER HT/PER
                 (UTC) (F)     (DEG/KT/KT) (MB)    (FT/S) (FT/S)
CHESAPEAKE LIGHT 2300   80     170/ 13/ 14 1015.7
64 E VA BEACH    2250   81 82  200/  4/  6 1015.2    2/11   2/11
DUCK             2300   82 77  130/ 12/ 14 1014.6
2 E DUCK         2211      81                N/A     2/11   2/11
OREGON INLET     2300   81 87  110/  5/  7 1015.7
13E OREGON INLT  2300      81                N/A     2/10
HATTERAS CG      2300   82 84  100/  7/  8 1015.1
DIAMOND BUOY     NOT AVBL
CAPE LOOKOUT     2300   81      90/  9/ 10 1014.4
BEAUFORT LAB     2300   82 81   90/  7/ 10 1014.1
30 SE NEW RVR IN NOT AVBL
27 SE WRIGHTSVLE 2300   79 82   80/ 10/ 12   N/A
5 SE WRIGHTSVLE  NOT AVBL
225 S CAPE HAT   2250   81 82  220/ 19/ 21 1013.4    8/ 7   2/11
41 SE CHARLESTON 2250   84 85   60/ 10/ 12 1013.2    3/ 6   3/ 6

$$


USA.gov is the U.S. government's official web portal to all federal, state and local government web resources and services.